Location: Ambrosina
(19.9365°S, 43.9833°W)
Time: 00:57:34
(UTC+00:00)

Cosmos 2221 - Pass Details

Date: 11 May 2021
Orbit: 592 x 615 km, 82.5° (Epoch: 20 June)

Event Time Altitude Azimuth Distance (km) Brightness Sun altitude
Rises 22:00:42 0° 198° (SSW) 2,848 6.0 -21.6°
Reaches altitude 10° 22:03:03 10° 207° (SSW) 1,940 5.3 -22.2°
Maximum altitude 22:06:57 34° 272° (W) 982 4.1 -23.1°
Drops below altitude 10° 22:10:49 10° 337° (NNW) 1,927 5.5 -24.0°
Sets 22:13:09 0° 346° (NNW) 2,824 6.3 -24.5°
